Location: Casa Rossa
(45.2389°N, 12.2056°E)
Time: 23:52:02
(UTC+00:00)

IRS-P3 - Pass Details

Date: 14 July 2020
Orbit: 814 x 818 km, 98.8° (Epoch: 14 August)

Event Time Altitude Azimuth Distance (km) Brightness Sun altitude
Rises 01:49:59 0° 14° (NNE) 3,353 8.6 -14.6°
Reaches altitude 10° 01:52:20 10° 14° (NNE) 2,417 7.7 -14.4°
Maximum altitude 01:57:42 89° 105° (ESE) 823 4.1 -13.8°
Enters shadow 02:01:59 16° 196° (SSW) 1,996 5.6 -13.3°
